Weather History for Kerkyra, Greece

Change the Weather History Date:

Sunday, March 9, 2014

  Actual Average Record
Temperature  
Mean Temperature 54 °F -  
Max Temperature 62 °F 63 °F 73 °F (2002)
Min Temperature 45 °F 46 °F 30 °F (2005)
Degree Days  
Heating Degree Days 12    
Growing Degree Days 4 (Base 50)    
Moisture  
Dew Point 40 °F    
Average Humidity 59    
Maximum Humidity 93    
Minimum Humidity 20    
Precipitation  
Precipitation 0.00 in 0.11 in - ()
Sea Level Pressure  
Sea Level Pressure 30.06 in    
Wind  
Wind Speed 2 mph ()    
Max Wind Speed 13 mph    
Max Gust Speed -    
Visibility 6.8 miles    
Events      
Averages and records for this station are not official NWS values.
T = Trace of Precipitation, MM = Missing Value Source: Averaged Metar Reports

Daily Weather History Graph

Daily Weather History Graph

Search for Another Location

Airport:

Trip Planner

Search our weather history database for the weather conditions in past years. The results will help you decide how hot, cold, wet, or windy it might be!

Date:

Astronomy

Mar. 09, 2014 Rise Set
Actual Time 7:01 AM EET 6:40 PM EET
Civil Twilight 6:34 AM EET 7:07 PM EET
Nautical Twilight 6:03 AM EET 7:38 PM EET
Astronomical Twilight 5:32 AM EET 8:10 PM EET
Moon 12:19 PM EET (3/9) 2:11 AM EET (3/9)
Length of Visible Light 12h 32m
Length of Day
11h 39m
First Quarter, 58% of the Moon is Illuminated
Mar 9
First Quarter
Mar 16
Full
Mar 24
Last Quarter
Mar 30
New
Apr 7
First Quarter

Hourly Weather History & Observations

Time (EET) Temp. Dew Point Humidity Pressure Visibility Wind Dir Wind Speed Gust Speed Precip Events Conditions
12:20 AM 51.8 °F 48.2 °F 88% 30.06 in - Calm Calm - N/A   Clear
12:50 AM 50.0 °F 46.4 °F 87% 30.06 in - Calm Calm - N/A   Clear
1:20 AM 50.0 °F 46.4 °F 87% 30.06 in - Calm Calm - N/A   Clear
1:50 AM 48.2 °F 46.4 °F 93% 30.06 in - Calm Calm - N/A   Clear
2:00 AM 49 °F 46 °F 86% 30.07 in 6 mi Calm Calm - -  
2:20 AM 48.2 °F 46.4 °F 93% 30.06 in - Calm Calm - N/A   Clear
2:50 AM 48.2 °F 46.4 °F 93% 30.06 in - Calm Calm - N/A   Clear
3:20 AM 48.2 °F 46.4 °F 93% 30.06 in - East 8.1 mph - N/A   Clear
3:50 AM 51.8 °F 44.6 °F 76% 30.06 in 6.2 mi East 4.6 mph - N/A   Scattered Clouds
4:20 AM 51.8 °F 44.6 °F 76% 30.06 in 6.2 mi North 3.5 mph - N/A   Scattered Clouds
4:50 AM 50.0 °F 42.8 °F 76% 30.06 in 6.2 mi WNW 3.5 mph - N/A   Scattered Clouds
5:00 AM 49 °F 43 °F 73% 30.07 in 6 mi WNW 3.5 mph - -   Partly Cloudy
5:20 AM 50.0 °F 42.8 °F 76% 30.06 in 6.2 mi WNW 3.5 mph - N/A   Scattered Clouds
5:50 AM 48.2 °F 42.8 °F 82% 30.06 in - NW 4.6 mph - N/A   Clear
6:20 AM 48.2 °F 42.8 °F 82% 30.06 in - West 4.6 mph - N/A   Clear
6:50 AM 46.4 °F 42.8 °F 87% 30.06 in - Calm Calm - N/A   Clear
7:20 AM 46.4 °F 42.8 °F 87% 30.06 in - Calm Calm - N/A   Clear
7:50 AM 44.6 °F 42.8 °F 93% 30.06 in - Calm Calm - N/A   Clear
8:00 AM 45 °F 42 °F 86% 30.09 in 12 mi Calm Calm - -   Scattered Clouds
8:20 AM 46.4 °F 42.8 °F 87% 30.09 in - Calm Calm - N/A   Clear
8:50 AM 48.2 °F 44.6 °F 87% 30.09 in - Variable 2.3 mph - N/A   Clear
9:20 AM 51.8 °F 46.4 °F 82% 30.09 in - Calm Calm - N/A   Clear
9:50 AM 55.4 °F 37.4 °F 51% 30.09 in - WSW 2.3 mph - N/A   Clear
10:20 AM 59.0 °F 37.4 °F 45% 30.09 in - Calm Calm - N/A   Clear
10:50 AM 59.0 °F 33.8 °F 39% 30.09 in - East 3.5 mph - N/A   Clear
11:00 AM 60 °F 33 °F 24% 30.09 in 12 mi East 3.5 mph - -   Clear
11:20 AM 60.8 °F 32.0 °F 34% 30.09 in - East 4.6 mph - N/A   Clear
11:50 AM 60.8 °F 32.0 °F 34% 30.09 in 6.2 mi South 4.6 mph - N/A   Scattered Clouds
12:20 PM 60.8 °F 33.8 °F 36% 30.09 in 6.2 mi Variable 2.3 mph - N/A   Scattered Clouds
12:50 PM 62.6 °F 33.8 °F 34% 30.06 in 6.2 mi South 5.8 mph - N/A   Mostly Cloudy
1:20 PM 62.6 °F 33.8 °F 34% 30.06 in 6.2 mi South 3.5 mph - N/A   Mostly Cloudy
1:50 PM 62.6 °F 32.0 °F 32% 30.06 in 6.2 mi South 3.5 mph - N/A   Mostly Cloudy
2:00 PM 62 °F 31 °F 20% 30.08 in 12 mi South 3.5 mph - -   Scattered Clouds
2:20 PM 62.6 °F 32.0 °F 32% 30.06 in 6.2 mi South 3.5 mph - N/A   Mostly Cloudy
2:50 PM 62.6 °F 33.8 °F 34% 30.06 in 6.2 mi Calm Calm - N/A   Mostly Cloudy
3:20 PM 62.6 °F 33.8 °F 34% 30.06 in 6.2 mi Calm Calm - N/A   Mostly Cloudy
3:50 PM 60.8 °F 32.0 °F 34% 30.04 in 6.2 mi South 2.3 mph - N/A   Mostly Cloudy
4:20 PM 62.6 °F 32.0 °F 32% 30.04 in 6.2 mi NNW 6.9 mph - N/A   Mostly Cloudy
4:50 PM 60.8 °F 37.4 °F 42% 30.04 in 6.2 mi NNW 3.5 mph - N/A   Mostly Cloudy
5:00 PM 61 °F 38 °F 31% 30.04 in 12 mi NNW 3.5 mph - -   Partly Cloudy
5:20 PM 60.8 °F 37.4 °F 42% 30.04 in 6.2 mi Calm Calm - N/A   Mostly Cloudy
5:50 PM 59.0 °F 44.6 °F 59% 30.04 in 6.2 mi Calm Calm - N/A   Mostly Cloudy
6:20 PM 59.0 °F 44.6 °F 59% 30.04 in 6.2 mi Calm Calm - N/A   Mostly Cloudy
6:50 PM 59.0 °F 41.0 °F 51% 30.04 in 6.2 mi NNW 3.5 mph - N/A   Mostly Cloudy
7:20 PM 59.0 °F 41.0 °F 51% 30.04 in 6.2 mi Calm Calm - N/A   Mostly Cloudy
7:50 PM 57.2 °F 44.6 °F 63% 30.04 in 6.2 mi Calm Calm - N/A   Mostly Cloudy
8:00 PM 57 °F 45 °F 54% 30.04 in 6 mi Calm Calm - -   Overcast
8:20 PM 57.2 °F 44.6 °F 63% 30.04 in 6.2 mi Calm Calm - N/A   Mostly Cloudy
8:50 PM 57.2 °F 39.2 °F 51% 30.04 in 6.2 mi SSE 3.5 mph - N/A   Mostly Cloudy
9:20 PM 57.2 °F 39.2 °F 51% 30.04 in 6.2 mi East 8.1 mph - N/A   Mostly Cloudy
9:50 PM 57.2 °F 33.8 °F 41% 30.04 in 6.2 mi East 8.1 mph - N/A   Mostly Cloudy
10:20 PM 57.2 °F 33.8 °F 41% 30.04 in 6.2 mi East 9.2 mph - N/A   Mostly Cloudy
10:50 PM 57.2 °F 33.8 °F 41% 30.04 in 6.2 mi ESE 9.2 mph - N/A   Mostly Cloudy
11:00 PM 56 °F 34 °F 31% 30.04 in 6 mi ESE 9.2 mph - -   Partly Cloudy
11:20 PM 57.2 °F 33.8 °F 41% 30.04 in 6.2 mi ESE 12.7 mph - N/A   Mostly Cloudy
11:50 PM 53.6 °F 42.8 °F 67% 30.04 in 6.2 mi South 6.9 mph - N/A   Mostly Cloudy